Flag for Germany Weather past 2 weeks in Sinsheim, Baden-Württemberg, Germany

Now
50 °F

Clear.


Feels Like: 50 °F
Forecast: 44 / 67 °F
Wind: 2 mph from North

Location: Baden Wurttemberg - Neuostheim

Current Time: Aug 20, 2014 at 7:13:55 AM

Latest Report: Aug 20, 2014 at 6:50 AM


Visibility: 10 mi

Pressure: 30.04 "Hg

Humidity: 94%

Dew point: 48 °F

Location of SinsheimLocation

Historic Weather in Sinsheim — Graph

°F

Sinsheim temperature yesterday

Maximum temperature yesterday: 72 °F (at 5:50 PM)
Minimum temperature yesterday: 52 °F (at 3:20 AM)
Average temperature yesterday: 61 °F

Past Weeks' High & Low Weather Summary

 TemperatureHumidityPressure
High81 °F (Aug 8, 1:50 PM)100% (Aug 5, 5:50 AM)30.12 "Hg (Aug 5, 5:50 AM)
Low48 °F (Aug 20, 5:50 AM)36% (Aug 12, 4:50 PM)29.65 "Hg (Aug 13, 1:50 PM)
Average67 °F66%29.93 "Hg
* Reported Aug 5 5:50 AM — Aug 20 5:50 AM, Sinsheim, Weather by CustomWeather, © 2014

Note: Actual official high and low records may vary slightly from our data, if they occured in-between our weather recording intervals... More about our weather records

Advertising

Sinsheim weather history for previous 24 hours

 ConditionsComfort  
Time TempWeatherWind HumidityBarometerVisibility
5:50 AM
Aug 20
48 °FClear.2 mph87%30.04 "Hg10 mi
5:20 AM50 °FClear.2 mph88%30.04 "Hg10 mi
8:50 PM
Aug 19
63 °FPassing clouds.8 mph59%29.95 "HgN/A
7:50 PM64 °FSunny.12 mph56%29.92 "Hg10 mi
7:20 PM64 °FPassing clouds.12 mph56%29.92 "HgN/A
6:50 PM64 °FSunny.15 mph56%29.92 "Hg10 mi
6:20 PM66 °FSunny.15 mph52%29.92 "Hg10 mi
5:50 PM72 °FPassing clouds.15 mph36%29.89 "HgN/A
5:20 PM70 °FPassing clouds.9 mph40%29.89 "HgN/A
4:50 PM68 °FPassing clouds.13 mph46%29.89 "HgN/A
4:20 PM68 °FPassing clouds.13 mph43%29.89 "HgN/A
3:50 PM70 °FScattered clouds.12 mph46%29.89 "HgN/A
3:20 PM68 °FScattered clouds.10 mph53%29.89 "HgN/A
2:50 PM68 °FScattered clouds.13 mph49%29.89 "HgN/A
2:20 PM70 °FScattered clouds.10 mph50%29.89 "HgN/A
1:50 PM70 °FScattered clouds.9 mph53%29.89 "HgN/A
1:20 PM68 °FScattered clouds.9 mph49%29.89 "HgN/A
12:50 PM68 °FScattered clouds.8 mph53%29.89 "HgN/A
12:20 PM66 °FScattered clouds.10 mph60%29.89 "HgN/A
11:50 AM64 °FBroken clouds.8 mph64%29.89 "HgN/A
11:20 AM64 °FPartly sunny.5 mph64%29.89 "HgN/A
10:50 AM63 °FScattered clouds.5 mph68%29.92 "HgN/A
10:20 AM63 °FPassing clouds.6 mph68%29.92 "HgN/A
9:50 AM61 °FPassing clouds.6 mph72%29.89 "HgN/A
9:20 AM59 °FPassing clouds.7 mph82%29.89 "HgN/A
8:50 AM57 °FPassing clouds.6 mph82%29.92 "HgN/A
8:20 AM55 °FPartly sunny.3 mph94%29.89 "HgN/A
7:50 AM55 °FSunny.5 mph88%29.89 "Hg10 mi
7:20 AM54 °FClear.3 mph94%29.89 "Hg10 mi
Weather by CustomWeather, © 2014

See weather overviewHow to use our weather pages